Shelton, WA

3:48 PM PDT on June 23, 2017 (GMT -0700)
Sanderson

Weather History for KSHN - March, 2013

Change the Weather History Date:

Monday, March 4, 2013

  Actual Average Record
Temperature  
Mean Temperature 40 °F -  
Max Temperature 52 °F 50 °F 66 °F (1965)
Min Temperature 27 °F 36 °F 20 °F (1955)
Degree Days  
Heating Degree Days 26    
Moisture  
Dew Point 29 °F    
Average Humidity 82    
Maximum Humidity 100    
Minimum Humidity 30    
Precipitation  
Precipitation 0.00 in - - ()
Sea Level Pressure  
Sea Level Pressure 30.15 in    
Wind  
Wind Speed 2 mph (North)    
Max Wind Speed 14 mph    
Max Gust Speed 21 mph    
Visibility 8 miles    
Events      
Averages and records for this station are not official NWS values.
T = Trace of Precipitation, MM = Missing Value Source: NWS Daily Summary

Daily Weather History Graph

Daily Weather History Graph

Search for Another Location

Airport or City:

Trip Planner

Search our weather history database for the weather conditions in past years. The results will help you decide how hot, cold, wet, or windy it might be!

Date:

Astronomy

Mar. 04, 2013 Rise Set
Actual Time 6:46 AM PST 6:02 PM PST
Civil Twilight 6:15 AM PST 6:33 PM PST
Nautical Twilight 5:40 AM PST 7:08 PM PST
Astronomical Twilight 5:04 AM PST 7:44 PM PST
Moon 1:18 AM PST (3/4) 10:32 AM PST (3/4)
Length of Visible Light 12h 17m
Length of Day
11h 16m
Waning Gibbous, 51% of the Moon is Illuminated
Mar 4
Waning Gibbous
Mar 4
Last Quarter
Mar 11
New
Mar 19
First Quarter
Mar 27
Full

Hourly Weather History & Observations

Time (PST) Temp. Windchill Dew Point Humidity Pressure Visibility Wind Dir Wind Speed Gust Speed Precip Events Conditions
12:53 AM 28.9 °F - 28.0 °F 96% 30.29 in 10.0 mi Calm Calm - N/A   Clear
1:53 AM 30.0 °F - 28.9 °F 96% 30.27 in 10.0 mi Calm Calm - N/A   Clear
2:28 AM 30.2 °F 26.7 °F 30.2 °F 100% 30.25 in 10.0 mi NNW 3.5 mph - N/A   Partly Cloudy
2:44 AM 33.8 °F 30.8 °F 32.0 °F 93% 30.25 in 10.0 mi NNW 3.5 mph - N/A   Mostly Cloudy
2:53 AM 30.0 °F - 30.0 °F 100% 30.27 in 6.0 mi Calm Calm - N/A   Mostly Cloudy
3:18 AM 30.2 °F - 28.4 °F 93% 30.24 in 1.8 mi Calm Calm - N/A   Overcast
3:53 AM 28.9 °F - 28.9 °F 100% 30.25 in 1.5 mi Calm Calm - N/A   Overcast
4:14 AM 28.4 °F - 26.6 °F 93% 30.24 in 2.0 mi Calm Calm - N/A   Overcast
4:53 AM 28.9 °F - 27.0 °F 92% 30.25 in 3.0 mi Calm Calm - N/A   Mostly Cloudy
5:09 AM 28.4 °F - 28.4 °F 100% 30.23 in 10.0 mi Calm Calm - N/A   Scattered Clouds
5:53 AM 27.0 °F - 26.1 °F 96% 30.24 in 4.0 mi Calm Calm - N/A   Mostly Cloudy
6:22 AM 28.4 °F - 26.6 °F 93% 30.22 in 10.0 mi Calm Calm - N/A   Mostly Cloudy
6:39 AM 30.2 °F 26.7 °F 30.2 °F 100% 30.21 in 1.8 mi North 3.5 mph - N/A   Overcast
6:53 AM 30.9 °F 27.5 °F 30.9 °F 100% 30.23 in 2.0 mi NNE 3.5 mph - N/A   Overcast
7:02 AM 30.2 °F 26.7 °F 30.2 °F 100% 30.21 in 4.0 mi North 3.5 mph - N/A   Overcast
7:16 AM 28.4 °F - 28.4 °F 100% 30.22 in 1.8 mi Calm Calm - N/A   Overcast
7:44 AM 30.2 °F - 30.2 °F 100% 30.21 in 3.0 mi Calm Calm - N/A   Overcast
7:53 AM 30.9 °F - 30.9 °F 100% 30.23 in 9.0 mi Calm Calm - N/A   Mostly Cloudy
8:00 AM 32.0 °F 28.7 °F 30.2 °F 93% 30.21 in 10.0 mi NNW 3.5 mph - N/A   Scattered Clouds
8:53 AM 35.1 °F - 35.1 °F 100% 30.22 in 10.0 mi Calm Calm - N/A   Mostly Cloudy
9:05 AM 35.6 °F - 35.6 °F 100% 30.20 in 10.0 mi Calm Calm - N/A   Mostly Cloudy
9:53 AM 41.0 °F 38.0 °F 37.0 °F 86% 30.20 in 10.0 mi NNE 4.6 mph - N/A   Mostly Cloudy
10:11 AM 42.8 °F 38.6 °F 37.4 °F 81% 30.18 in 10.0 mi Variable 6.9 mph - N/A   Scattered Clouds
10:53 AM 46.0 °F 40.2 °F 34.0 °F 63% 30.17 in 10.0 mi NNE 12.7 mph 18.4 mph N/A   Clear
11:53 AM 48.9 °F - 28.9 °F 46% 30.15 in 10.0 mi NNE 8.1 mph - N/A   Clear
12:53 PM 51.1 °F - 25.0 °F 36% 30.11 in 10.0 mi North 11.5 mph 17.3 mph N/A   Clear
1:53 PM 51.1 °F - 23.0 °F 33% 30.07 in 10.0 mi NNE 9.2 mph - N/A   Clear
2:53 PM 52.0 °F - 21.0 °F 30% 30.03 in 10.0 mi NNE 13.8 mph 20.7 mph N/A   Clear
3:53 PM 52.0 °F - 26.1 °F 37% 30.01 in 10.0 mi North 12.7 mph - N/A   Clear
4:53 PM 50.0 °F - 30.0 °F 46% 30.00 in 10.0 mi North 8.1 mph - N/A   Clear
5:53 PM 45.0 °F 43.5 °F 28.0 °F 52% 29.99 in 10.0 mi North 3.5 mph - N/A   Clear
6:53 PM 43.0 °F 41.3 °F 28.0 °F 56% 29.97 in 10.0 mi NNE 3.5 mph - N/A   Clear
7:53 PM 37.0 °F 34.5 °F 28.0 °F 70% 29.96 in 10.0 mi NNE 3.5 mph - N/A   Clear
8:53 PM 32.0 °F - 28.0 °F 85% 29.95 in 10.0 mi Calm Calm - N/A   Clear
9:53 PM 30.0 °F - 28.0 °F 92% 29.94 in 10.0 mi Calm Calm - N/A   Clear
11:53 PM 36.0 °F 31.1 °F 30.0 °F 79% 29.91 in 10.0 mi North 5.8 mph - N/A   Clear